#timestamp,LO_Frequency,Hit,StdDev 
1456923615.8,286047001.2,N
1456923635.6,286047000.9,N
1456923655.4,286047002.8,N
1456923675.3,286047006.9,N
1456923695.1,286047007.4,N
1456923715.8,286047004.6,N
1456923735.7,286047004.5,N
1456923755.5,286047006.9,N
1456923775.3,286047007.4,N
1456923795.2,286047007.8,N
1456923815.9,286047009.5,N
1456923835.7,286047010.6,N
1456923855.6,286047005.7,N
1456923875.4,286047005.1,N
1456923895.2,286047008.9,N
1456923915.0,286047009.0,N
1456923916.0,286047009.0,N
1456923935.8,286047005.1,N
1456923955.6,286047004.3,N
1456923975.4,286046999.0,N
1456923995.3,286046999.3,N
1456924015.1,286046999.0,N
1456924035.8,286047001.2,N
1456924055.7,286046995.4,N
1456924075.5,286046995.4,N
1456924095.3,286046996.8,N
1456924115.2,286046995.5,N
1456924135.9,286046993.5,N
1456924155.7,286046994.3,N
1456924175.6,286046989.1,N
1456924195.4,286046984.9,N
1456924215.2,286046980.8,N
1456924235.1,286046986.3,N
1456924236.0,286046986.3,N
1456924255.8,286046985.1,N
1456924275.6,286046985.1,N
1456924295.5,286046981.7,N
1456924315.3,286046982.8,N
1456924335.1,286046987.9,N
1456924355.8,286046991.8,N
1456924375.7,286046996.1,N
1456924395.5,286046994.0,N
1456924415.3,286046996.3,N
1456924435.2,286046997.6,N
1456924455.9,286046995.3,N
1456924475.7,286047001.6,N
1456924495.6,286047003.6,N
1456924515.4,286047003.6,N
1456924535.2,286047001.2,N
1456924555.1,286046999.6,N
1456924556.0,286046999.6,N
1456924575.8,286046995.8,N
1456924595.6,286046992.3,N
1456924615.5,286046990.5,N
1456924635.3,286046989.1,N
1456924655.1,286046991.1,N
1456924675.9,286046991.3,N
1456924695.7,286046989.1,N
1456924715.5,286046991.4,N
1456924735.3,286046994.1,N
1456924755.2,286046994.9,N
1456924775.0,286046998.6,N
1456924775.9,286046998.6,N
1456924795.7,286047001.2,N
1456924815.6,286047002.7,N
1456924835.4,286047004.7,N
1456924855.2,286047001.3,N
1456924875.1,286047004.4,N
1456924876.0,286047004.4,N
1456924895.8,286047004.0,N
1456924915.6,286047003.4,N
1456924935.5,286047001.3,N
1456924955.3,286047002.4,N
1456924975.1,286046998.2,N
1456924995.9,286046993.7,N
1456925015.7,286046993.1,N
1456925035.5,286046990.6,N
1456925055.4,286046992.6,N
1456925075.2,286046992.4,N
1456925095.0,286046992.4,N
1456925095.9,286046992.4,N
1456925115.8,286046989.2,N
1456925135.6,286046987.1,N
1456925155.4,286046989.6,N
1456925175.2,286046990.8,N
1456925195.1,286046990.7,N
1456925196.0,286046990.7,N
1456925215.8,286046987.4,N
1456925235.6,286046989.7,N
1456925255.5,286046987.8,N
1456925275.3,286046980.6,Y
1456925295.1,286046985.6,P
1456925315.9,286046985.6,N
1456925335.7,286046986.0,N
1456925355.5,286046988.2,N
1456925375.4,286046984.6,Y
1456925395.2,286046994.6,P
1456925415.0,286046997.9,N
1456925415.9,286046997.9,N
1456925435.8,286046998.3,N
1456925455.6,286046997.4,N
1456925475.4,286046996.2,N
1456925495.3,286046996.3,N
1456925515.1,286046995.2,N
1456925516.0,286046995.2,N
1456925535.8,286046999.5,N
1456925555.7,286046999.3,N
1456925575.5,286046999.4,N
1456925595.3,286046993.8,N
1456925615.2,286046993.6,N
1456925635.9,286046996.1,N
1456925655.7,286046994.0,N
1456925675.6,286046990.6,Y
1456925695.4,286046994.7,P
1456925715.2,286046995.4,P
1456925735.1,286046997.3,P
1456925736.0,286046997.3,N
1456925755.8,286046999.4,N
1456925775.6,286047000.2,N
1456925795.4,286046999.1,N
1456925815.3,286046999.9,N
1456925835.1,286047002.9,N
1456925855.8,286047001.5,N
1456925875.7,286047003.2,N
1456925895.5,286047007.6,N
1456925915.3,286047006.0,N
1456925935.2,286047005.6,N
1456925955.9,286047005.3,N
1456925975.7,286047003.3,N
1456925995.6,286047007.3,N
1456926015.4,286047006.2,N
1456926035.2,286047007.0,N
1456926055.0,286047008.7,N
1456926056.0,286047008.7,N
1456926075.8,286047009.5,N
1456926095.6,286047008.1,N
1456926115.4,286047009.9,N
1456926135.3,286047013.0,N
1456926155.1,286047017.2,Y
1456926175.8,286047010.0,P
1456926195.7,286047009.6,N
1456926215.5,286047009.9,P
1456926235.3,286047013.8,Y
1456926255.2,286047005.7,P
1456926275.0,286047002.4,N
1456926275.9,286047002.4,N
1456926295.7,286046999.9,N
1456926315.6,286047001.9,N
1456926335.4,286046998.5,N
1456926355.2,286046999.3,N
1456926375.1,286046994.7,N
1456926376.0,286046994.7,N
1456926395.8,286046989.1,N
1456926415.6,286046990.8,N
1456926435.5,286046990.7,N
1456926455.3,286046989.6,N
1456926475.1,286046989.6,N
1456926495.9,286046988.4,N
1456926515.7,286046988.8,N
1456926535.5,286046992.7,N
1456926555.3,286046997.7,N
1456926575.2,286046994.3,N
1456926595.0,286046994.6,N
1456926595.9,286046994.6,N
1456926615.7,286046993.5,N
1456926635.6,286046994.2,N
1456926655.4,286046991.7,N
1456926675.2,286046992.1,N
1456926695.1,286046995.4,N
1456926696.0,286046995.4,N
1456926715.8,286046993.3,N
1456926735.6,286046990.4,N
1456926755.5,286046988.7,N
1456926775.3,286046988.6,N
1456926795.1,286046994.0,N
1456926815.9,286046995.1,N
1456926835.7,286046992.2,N
1456926855.5,286046994.0,N
1456926875.3,286046992.3,N
1456926895.2,286046994.1,N
1456926915.0,286046994.9,N
1456926915.9,286046994.9,N
1456926935.7,286046994.7,N
1456926955.6,286046991.5,Y
1456926975.4,286046999.3,P
1456926995.2,286046995.3,N
1456927015.1,286046997.0,N
1456927016.0,286046997.0,N
1456927035.8,286046997.5,N
1456927055.6,286046996.5,N
1456927075.5,286046997.5,N
1456927095.3,286046994.5,Y
1456927115.1,286046995.0,P
1456927135.9,286046993.5,P
1456927155.7,286046996.3,N
1456927175.5,286046996.8,N
1456927195.4,286046997.8,N
